Showing default

BEIDOU 3M6, 43208

Orbit data source: Space-Track

BEIDOU 3M6, 43208 is a payload satellite owned by CNSA (CN) in MEO that was launched on Mon, 12 Feb 2018 UTC via a CHANG ZHENG 3B/YZ-1 launch vehicle from the Xichang Space Center, China (XSC). Payload-class satellites include a variety of spacecraft equipped with specific instruments for various scientific and technological missions. These include communications satellites like Starlink; space stations such as the ISS; scientific satellites like the Hubble; Earth observation satellites from companies like Planet Labs, Umbra, and HawkEye 360; GPS; miniature CubeSats for education and research; and military/defense satellites.

Loading next visibility...
Identifier
43208, 2018-018B
Orbit
MEO
Country
Flag of CNCN / PRC
Related business
Manufacturer
CAST
Mission
Operational Defense Navigation
Bus & Motor
BD-3M, Unknown motor
Mass
1,014 kg wet, ~850 kg dry
Launch date (UTC)
2018-02-12 (8 years ago)
Launch vehicle
CHANG ZHENG 3B/YZ-1
Launch site
Xichang Space Center, China (XSC)
Object type
Payload
Rocket body
Debris
Shape & HBR
Box + 2 Pan, 5.0 m
Radar Cross Section
8.984 m², Large (>1 m²)

Expand to show TLE details & history
Last TLE update: 1 day ago

TLE from 1 day ago
0 BEIDOU 3M6
1 43208U 18018B   26172.02651015 -.00000078  00000-0  00000+0 0  9998
2 43208  56.6539  63.0252 0008507 342.4990  17.5099  1.86231037 56814
Epoch: 2026-06-21T00:38Z
TLE epoch observation values (Epoch: 2026-06-21T00:38:10.476Z)
Latitude
-0.00001°
Longitude
144.264°
Altitude
21,505.731 km
Speed
3.782 km/s
True Right ascension
04h 12m 09s
True Declination
0° 00' 00"
Sunlit
Object was in daylight at epoch
Visualization orbit readout
Latitude
Unknown
Longitude
Unknown
Altitude
Unknown
Speed
Unknown
Apparent Right ascension
Unknown
Apparent Declination
Unknown
Sunlit
N/A
Visualization observer readout
Local Sidereal Time
23:27:00
Azimuth
Unknown
Elevation
Unknown
Doppler factor
Unknown
Orbital elements
Apogee altitude
21,551.731 km
Perigee altitude
21,504.251 km
Semi-major axis
27,906.128 km
Eccentricity
0.00085
Inclination
56.6539°
RAAN
63.0252°
Arg. of periapsis
342.499°
True anomaly
17.53926°
Mean anomaly
17.5099°
Eccentric anomaly
17.52458°
Mean motion
0.46558 °/min
Orbital period
773.23 mins
BSTAR
0
Loading maneuver chart data...
Computing Atmospheric mass density...
Loading historical data...
Loading historical data...
Loading historical data...
Loading historical data...
Loading historical data...
Loading historical data...
Loading historical data...
Other satellites on launch #18 in the year 2018 (2018-02-12 UTC)

Documentation

Showing up to 5 results
|